• în Republica Moldova
  • Lista ţărilor
  • Pe 7 zile
  • Temperatura apei
  • Hartă satelitară
  • Meteo pe hartă
  • Widget-uri
  • user-avatar
    Intrare

    Meteo pe oră la Fier

    Astăzi, 21 Octombrie, Sâmbătă

    Timp Temperatura Precipitaţii Vânt Presiune Umiditate
    00:00 +19°C° 0 mm 1 m/s 764 mmHg 83%
    01:00 +18°C° 0 mm 1 m/s 764 mmHg 83%
    02:00 +18°C° 0 mm 1 m/s 764 mmHg 83%
    03:00 +18°C° 0 mm 1 m/s 763 mmHg 82%
    04:00 +18°C° 0 mm 1 m/s 763 mmHg 82%
    05:00 +18°C° 0 mm 1 m/s 763 mmHg 79%
    06:00 +18°C° 0 mm 1 m/s 763 mmHg 76%
    07:00 +19°C° 0 mm 1 m/s 763 mmHg 73%
    08:00 +21°C° 0 mm 1 m/s 763 mmHg 65%
    09:00 +23°C° 0 mm 1 m/s 763 mmHg 57%
    10:00 +25°C° 0 mm 2 m/s 764 mmHg 49%
    11:00 +25°C° 0 mm 2 m/s 763 mmHg 47%
    12:00 +26°C° 0 mm 3 m/s 763 mmHg 45%
    13:00 +26°C° 0 mm 3 m/s 763 mmHg 44%
    14:00 +26°C° 0 mm 3 m/s 762 mmHg 49%
    15:00 +25°C° 0 mm 3 m/s 762 mmHg 54%
    16:00 +23°C° 0 mm 4 m/s 762 mmHg 59%
    17:00 +21°C° 0 mm 3 m/s 762 mmHg 68%
    18:00 +19°C° 0 mm 3 m/s 762 mmHg 77%
    19:00 +18°C° 0 mm 2 m/s 762 mmHg 86%
    20:00 +17°C° 0 mm 2 m/s 762 mmHg 87%
    21:00 +17°C° 0 mm 2 m/s 763 mmHg 87%
    22:00 +17°C° 0 mm 2 m/s 763 mmHg 88%
    23:00 +16°C° 0 mm 2 m/s 763 mmHg 87%

    Mâine, 22 Octombrie, Duminică

    Timp Temperatura Precipitaţii Vânt Presiune Umiditate
    00:00 +16°C° 0 mm 2 m/s 762 mmHg 86%
    01:00 +16°C° 0 mm 1 m/s 762 mmHg 86%
    02:00 +15°C° 0 mm 1 m/s 762 mmHg 83%
    03:00 +15°C° 0 mm 2 m/s 762 mmHg 81%
    04:00 +15°C° 0 mm 2 m/s 762 mmHg 79%
    05:00 +16°C° 0 mm 2 m/s 762 mmHg 75%
    06:00 +16°C° 0 mm 2 m/s 762 mmHg 72%
    07:00 +17°C° 0 mm 2 m/s 762 mmHg 68%
    08:00 +19°C° 0 mm 2 m/s 761 mmHg 64%
    09:00 +21°C° 0 mm 2 m/s 761 mmHg 59%
    10:00 +24°C° 0 mm 2 m/s 761 mmHg 55%
    11:00 +24°C° 0 mm 2 m/s 761 mmHg 53%
    12:00 +25°C° 0 mm 2 m/s 760 mmHg 52%
    13:00 +26°C° 0 mm 3 m/s 760 mmHg 50%
    14:00 +25°C° 0 mm 2 m/s 759 mmHg 53%
    15:00 +24°C° 0 mm 2 m/s 759 mmHg 57%
    16:00 +24°C° 0 mm 2 m/s 759 mmHg 60%
    17:00 +21°C° 0 mm 2 m/s 759 mmHg 66%
    18:00 +20°C° 0 mm 2 m/s 759 mmHg 73%
    19:00 +19°C° 0 mm 1 m/s 759 mmHg 79%
    20:00 +18°C° 0,1 mm 2 m/s 759 mmHg 78%
    21:00 +18°C° 0,1 mm 2 m/s 758 mmHg 77%
    22:00 +18°C° 0,1 mm 2 m/s 758 mmHg 75%
    23:00 +18°C° 0,1 mm 3 m/s 758 mmHg 74%

    Poimâine, 23 Octombrie, Luni

    Timp Temperatura Precipitaţii Vânt Presiune Umiditate
    00:00 +18°C° 0,1 mm 3 m/s 757 mmHg 74%
    01:00 +18°C° 0,1 mm 3 m/s 757 mmHg 73%
    02:00 +18°C° 0,9 mm 4 m/s 756 mmHg 72%
    03:00 +18°C° 0,9 mm 4 m/s 756 mmHg 72%
    04:00 +17°C° 0,9 mm 4 m/s 755 mmHg 71%
    05:00 +18°C° 0,6 mm 4 m/s 755 mmHg 72%
    06:00 +18°C° 0,6 mm 4 m/s 755 mmHg 73%
    07:00 +18°C° 0,6 mm 4 m/s 755 mmHg 73%
    08:00 +19°C° 0,2 mm 4 m/s 754 mmHg 69%
    09:00 +20°C° 0,2 mm 4 m/s 754 mmHg 65%
    10:00 +22°C° 0,2 mm 4 m/s 754 mmHg 61%
    11:00 +22°C° 0,2 mm 4 m/s 753 mmHg 59%
    12:00 +22°C° 0,2 mm 4 m/s 753 mmHg 57%
    13:00 +22°C° 0,2 mm 5 m/s 752 mmHg 56%
    14:00 +21°C° 0,6 mm 4 m/s 752 mmHg 59%
    15:00 +20°C° 0,6 mm 4 m/s 752 mmHg 62%
    16:00 +19°C° 0,6 mm 4 m/s 752 mmHg 65%
    17:00 +18°C° 0,7 mm 3 m/s 752 mmHg 70%
    18:00 +17°C° 0,7 mm 3 m/s 752 mmHg 75%
    19:00 +16°C° 0,7 mm 2 m/s 752 mmHg 80%
    20:00 +16°C° 0,7 mm 2 m/s 752 mmHg 80%
    21:00 +16°C° 0,7 mm 2 m/s 752 mmHg 80%
    22:00 +15°C° 0,7 mm 2 m/s 752 mmHg 80%
    23:00 +14°C° 1 mm 3 m/s 752 mmHg 80%

    24 Octombrie, Marţi

    Timp Temperatura Precipitaţii Vânt Presiune Umiditate
    00:00 +14°C° 1 mm 4 m/s 752 mmHg 80%
    01:00 +14°C° 1 mm 5 m/s 751 mmHg 81%
    02:00 +13°C° 0,3 mm 5 m/s 751 mmHg 81%
    03:00 +13°C° 0,3 mm 5 m/s 751 mmHg 82%
    04:00 +13°C° 0,3 mm 5 m/s 751 mmHg 83%
    05:00 +13°C° 0 mm 5 m/s 751 mmHg 81%
    06:00 +13°C° 0 mm 6 m/s 751 mmHg 79%
    07:00 +13°C° 0 mm 6 m/s 752 mmHg 77%
    08:00 +15°C° 0 mm 6 m/s 752 mmHg 68%
    09:00 +16°C° 0 mm 6 m/s 752 mmHg 59%
    10:00 +17°C° 0 mm 6 m/s 752 mmHg 50%
    11:00 +19°C° 0 mm 6 m/s 752 mmHg 48%
    12:00 +18°C° 0 mm 7 m/s 752 mmHg 46%
    13:00 +20°C° 0 mm 7 m/s 751 mmHg 45%
    14:00 +18°C° 0 mm 7 m/s 751 mmHg 46%
    15:00 +18°C° 0 mm 7 m/s 751 mmHg 48%
    16:00 +17°C° 0 mm 7 m/s 752 mmHg 50%
    17:00 +16°C° 0 mm 7 m/s 752 mmHg 54%
    18:00 +15°C° 0 mm 7 m/s 752 mmHg 57%
    19:00 +14°C° 0 mm 7 m/s 752 mmHg 61%
    20:00 +14°C° 0,1 mm 6 m/s 752 mmHg 63%
    21:00 +14°C° 0,1 mm 6 m/s 753 mmHg 65%
    22:00 +14°C° 0,1 mm 6 m/s 753 mmHg 68%
    23:00 +14°C° 0 mm 6 m/s 753 mmHg 69%

    25 Octombrie, Miercuri

    Timp Temperatura Precipitaţii Vânt Presiune Umiditate
    00:00 +14°C° 0 mm 6 m/s 753 mmHg 70%
    01:00 +13°C° 0 mm 6 m/s 753 mmHg 71%
    02:00 +13°C° 0 mm 6 m/s 754 mmHg 72%
    03:00 +14°C° 0 mm 6 m/s 754 mmHg 73%
    04:00 +14°C° 0 mm 7 m/s 754 mmHg 73%
    05:00 +14°C° 0 mm 7 m/s 755 mmHg 73%
    06:00 +14°C° 0 mm 7 m/s 755 mmHg 73%
    07:00 +14°C° 0 mm 7 m/s 756 mmHg 73%
    08:00 +15°C° 0 mm 8 m/s 756 mmHg 67%
    09:00 +17°C° 0 mm 8 m/s 757 mmHg 60%
    10:00 +20°C° 0 mm 8 m/s 757 mmHg 53%
    11:00 +20°C° 0 mm 7 m/s 757 mmHg 52%
    12:00 +21°C° 0 mm 7 m/s 757 mmHg 50%
    13:00 +21°C° 0 mm 6 m/s 758 mmHg 48%
    14:00 +20°C° 0 mm 6 m/s 758 mmHg 50%
    15:00 +20°C° 0 mm 6 m/s 758 mmHg 52%
    16:00 +19°C° 0 mm 6 m/s 759 mmHg 55%
    17:00 +17°C° 0 mm 5 m/s 759 mmHg 58%
    18:00 +16°C° 0 mm 5 m/s 760 mmHg 62%
    19:00 +14°C° 0 mm 5 m/s 761 mmHg 66%
    20:00 +14°C° 0 mm 5 m/s 761 mmHg 67%
    21:00 +13°C° 0 mm 5 m/s 762 mmHg 68%
    22:00 +13°C° 0 mm 4 m/s 762 mmHg 69%
    23:00 +13°C° 0 mm 4 m/s 763 mmHg 70%

    26 Octombrie, Joi

    Timp Temperatura Precipitaţii Vânt Presiune Umiditate
    00:00 +12°C° 0 mm 4 m/s 763 mmHg 71%
    01:00 +12°C° 0 mm 4 m/s 764 mmHg 72%
    02:00 +12°C° 0 mm 4 m/s 764 mmHg 72%
    03:00 +12°C° 0 mm 4 m/s 764 mmHg 73%
    04:00 +11°C° 0 mm 4 m/s 764 mmHg 73%
    05:00 +11°C° 0 mm 4 m/s 765 mmHg 72%
    06:00 +12°C° 0 mm 4 m/s 765 mmHg 71%
    07:00 +12°C° 0 mm 4 m/s 765 mmHg 69%
    08:00 +14°C° 0 mm 4 m/s 765 mmHg 60%
    09:00 +17°C° 0 mm 3 m/s 765 mmHg 50%
    10:00 +19°C° 0 mm 3 m/s 765 mmHg 40%
    11:00 +20°C° 0 mm 4 m/s 765 mmHg 36%
    12:00 +21°C° 0 mm 4 m/s 765 mmHg 32%
    13:00 +22°C° 0 mm 4 m/s 765 mmHg 29%
    14:00 +22°C° 0 mm 4 m/s 765 mmHg 32%
    15:00 +21°C° 0 mm 4 m/s 765 mmHg 35%
    16:00 +20°C° 0 mm 5 m/s 765 mmHg 38%
    17:00 +19°C° 0 mm 5 m/s 765 mmHg 41%
    18:00 +16°C° 0 mm 5 m/s 765 mmHg 43%
    19:00 +15°C° 0 mm 4 m/s 766 mmHg 46%
    20:00 +14°C° 0 mm 4 m/s 766 mmHg 46%
    21:00 +14°C° 0 mm 4 m/s 766 mmHg 46%
    22:00 +13°C° 0 mm 4 m/s 767 mmHg 46%
    23:00 +13°C° 0 mm 3 m/s 767 mmHg 46%
    Arată mai mult